Weather in Tubinskiy

Russia / Republic of Bashkortostan     52°53′15″N   58°13′02″E
В апреле 2022 года жителям России запретили посещать сайт meteo.paraplan.net по решению Генеральной прокуратуры. Аудитория сайта уменьшилась в 10 раз. Владельцы сайта не видят смысла в поддержке погодного сервера в таких условиях. Сайт будет закрыт в октябре.
temp.,
°C
wind,
m/s
gust,
m/s
humid.,
%
clouds,
%
prec.,
mm/h
press.,
hPa
HPBL,
m
3 october, mon
mon323:00+3s367760 0.0 1029134
02:00+2ssw35736 0.0 102980
05:00+1ssw337017 0.0 102940
08:00+2ssw346886 0.0 102964
11:00+7s365498 0.0 1029298
14:00+10s454757 0.0 1028610
17:00+9s355387 0.0 1028300
20:00+4s22645 0.0 103011
4 october, tue
tue423:00+4s22655 0.0 103110
02:00+3ssw22630 0.0 103110
05:00+2sw22574 0.0 103310
08:00+2ssw11515 0.0 103410
11:00+8sse23350 0.0 1033357
14:00+11sse34280 0.0 1033808
17:00+10s3433100 0.0 1033583
20:00+5s2243100 0.0 103510
5 october, wed
wed523:00+4s2244100 0.0 103510
02:00+3ssw224569 0.0 103511
05:00+3ssw2244100 0.0 103518
08:00+3ssw2245100 0.0 103537
11:00+8s4633100 0.0 1034361
14:00+11s5626100 0.0 1032721
17:00+10s4632100 0.0 1031627
20:00+7s3339100 0.0 103153
6 october, thu
thu623:00+7sse3635100 0.0 1030110
02:00+6sse2237100 0.0 102824
05:00+6s3935100 0.0 1026169
08:00+6ssw3935100 0.0 1025187
11:00+10sw3630100 0.0 1023387
14:00+7sse3767100 0.9 1022242
17:00+10s41039100 0.9 1020351
20:00+9ssw51549100 0.0 1019576
7 october, fri
fri723:00+8ssw41157100 0.0 1018328
02:00+7sw3854100 0.0 1017258
05:00+7wsw3863100 0.0 1016236
08:00+6w610816 0.0 1016862
11:00+6w797373 0.1 1017940
14:00+7w8106298 0.0 10171186
17:00+7w7105695 0.0 10161315
20:00+6wsw5116498 0.0 1017692